User: anonymous   Login
Location: NJAA Observatory
(40.6819°N, 74.8979°W)
Time: 07:01:58
(UTC-04:00)
Language:

Landsat 5 - Orbit

View from above orbital plane
View from above orbital plane
View from above satellite
View from above satellite

Ground track
Ground track

The orbit data is extracted from the following two-line orbital elements,

1 14780U 84021A   17290.74800449  .00000485  00000-0  50661-4 0  9999
2 14780  98.0508  45.1680 0091965 125.4331 235.5517 14.91589350794143
Epoch (UTC): 17 October 2017 17:57:07
Eccentricity: 0.0091965
inclination: 98.0508°
perigee height: 529 km
apogee height: 657 km
right ascension of ascending node: 45.1680°
argument of perigee: 125.4331°
revolutions per day: 14.91589350
mean anomaly at epoch: 235.5517°
orbit number at epoch: 79414

The dashed part of the orbit path shows where the satellite is in the earth's shadow,  

DLR